[[{"header":{"parameterUnit":"m.s-1","parameterCategory":1,"la1":30.2991,"la2":30.254,"lo1":-89.0895,"lo2":-89.0444,"dy":0.0017,"dx":0.0017,"nx":28,"ny":28,"refTime":"2023-08-30T21:00:00:Z","depth":0,"parameterNumber":2,"parameterNumberName":"U-component_of_WINDS"},"data":[0,0,0,0,0,0,0,0,0,0,0,0,0,0,0,0,0,0,0,0,0,0,0,0,0,0,0,0,0,0,0,0,0,0,0,0,0,0,0,0,0,0,0,0,0,0,0,0,0,0,0,0,0,0,0,0,0,0,-1.3421,-1.342,0,-1.3315,-1.3314,-1.3313,-1.3251,-1.3251,-1.325,-1.325,-1.3139,-1.3136,-1.3134,0,0,0,0,0,0,0,0,0,0,0,0,0,-1.3564,-1.3561,-1.3421,-1.342,-1.3418,-1.3315,-1.3314,-1.3313,-1.3251,-1.3251,-1.325,-1.325,-1.314,-1.3137,-1.3133,0,0,0,0,0,0,0,0,0,0,0,0,0,-1.3484,-1.3561,-1.3421,-1.3375,-1.337,-1.3316,-1.3314,-1.3312,-1.3251,-1.3251,-1.325,-1.325,-1.3141,-1.3137,-1.3133,-1.3115,0,0,-1.312,-1.3119,0,0,0,0,0,0,0,0,-1.3489,-1.3479,-1.3383,-1.3378,-1.3372,-1.3296,-1.3323,-1.3246,-1.3251,-1.3296,-1.325,-1.325,-1.3191,-1.3183,-1.3164,-1.311,-1.3105,-1.312,-1.3117,-1.3116,-1.3115,0,0,0,0,0,0,0,-1.3494,-1.3483,-1.3379,-1.3382,-1.3375,-1.3358,-1.3346,-1.3308,-1.3247,-1.3292,-1.3287,-1.3276,-1.3188,-1.3168,-1.3161,-1.3104,-1.312,-1.3116,-1.3114,-1.3112,-1.3025,-1.3025,0,0,0,0,0,0,-1.3508,-1.3488,-1.3382,-1.3376,-1.3431,-1.3356,-1.3343,-1.3321,-1.3247,-1.3236,-1.3276,-1.3273,-1.3175,-1.3166,-1.3157,-1.3129,-1.3116,-1.3112,-1.311,-1.3025,-1.3025,-1.3025,0,0,0,0,0,0,-1.3511,-1.3499,-1.3387,-1.3431,-1.3415,-1.3354,-1.333,-1.3319,-1.3299,-1.3235,-1.3224,-1.3267,-1.3174,-1.3162,-1.3125,-1.3124,-1.311,-1.3106,-1.3025,-1.3025,-1.3025,-1.3074,0,0,0,0,0,0,-1.3515,-1.3501,-1.3495,-1.3431,-1.3413,-1.3359,-1.333,-1.3317,-1.3292,-1.3287,-1.3224,-1.3213,-1.3173,-1.3132,-1.3121,-1.3118,-1.3103,-1.3025,-1.3025,-1.3025,-1.3073,-1.3076,-1.3079,0,0,0,0,0,-1.3521,-1.3513,-1.3495,-1.3483,-1.3405,-1.3359,-1.3349,-1.3304,-1.3293,-1.3285,-1.3243,-1.3215,-1.3126,-1.3128,-1.3116,-1.3112,-1.3025,-1.3025,-1.3025,-1.3071,-1.3076,-1.3079,0,0,0,0,0,0,-1.3578,-1.3504,-1.3483,-1.3455,-1.3414,-1.3349,-1.3338,-1.3311,-1.3271,-1.3269,-1.3214,-1.32,-1.3167,-1.3135,-1.314,-1.3089,-1.3072,-1.307,-1.3111,-1.3115,-1.3118,-1.3126,-1.31,0,0,0,0,0,-1.3588,-1.3558,-1.3494,-1.3475,-1.3456,-1.3401,-1.3379,-1.3348,-1.3303,-1.3285,-1.3241,-1.3197,-1.3159,-1.3135,-1.3096,-1.3067,-1.3051,-1.3058,-1.3061,-1.3064,-1.3063,-1.3042,-1.3044,-1.3026,-1.3026,-1.3026,0,0,-1.3607,-1.3562,-1.3547,-1.3486,-1.345,-1.3419,-1.3387,-1.3356,-1.3331,-1.328,-1.3242,-1.3208,-1.3155,-1.3121,-1.3104,-1.3094,-1.3064,-1.3065,-1.3068,-1.3065,-1.3043,-1.3044,-1.3046,-1.3027,-1.3027,-1.3027,0,0,-1.3625,-1.359,-1.3569,-1.3534,-1.348,-1.3443,-1.3438,-1.3376,-1.3351,-1.3313,-1.3272,-1.3241,-1.3178,-1.3141,-1.3113,-1.3114,-1.3085,-1.3103,-1.3121,-1.3101,-1.3102,-1.3103,-1.3101,-1.3101,-1.3102,-1.3102,-1.3102,0,-1.3656,-1.3609,-1.3562,-1.3532,-1.3505,-1.3457,-1.3433,-1.3401,-1.3337,-1.3319,-1.3308,-1.3224,-1.3186,-1.3141,-1.3141,-1.3121,-1.3111,-1.311,-1.3106,-1.3106,-1.3106,-1.3104,-1.3104,-1.3104,-1.3104,-1.3104,-1.3103,0,-1.3647,-1.3615,-1.3604,-1.3544,-1.3515,-1.3489,-1.3435,-1.3411,-1.3382,-1.3345,-1.3304,-1.3255,-1.3204,-1.3191,-1.3163,-1.3141,-1.3136,-1.3117,-1.3099,-1.3111,-1.3108,-1.3107,-1.3108,-1.3107,-1.3106,-1.3105,0,0,-1.3702,-1.3613,-1.361,-1.3581,-1.3516,-1.3489,-1.3459,-1.341,-1.339,-1.3346,-1.3318,-1.3263,-1.3244,-1.3213,-1.3179,-1.3162,-1.3162,-1.3143,-1.3141,-1.3147,-1.3133,-1.3148,-1.3148,-1.3142,-1.3142,-1.3142,-1.3137,0,-1.371,-1.3655,-1.361,-1.3571,-1.3539,-1.3491,-1.3464,-1.3421,-1.3385,-1.335,-1.3309,-1.3271,-1.3249,-1.3229,-1.321,-1.3166,-1.3158,-1.3166,-1.3114,-1.3112,-1.3128,-1.3146,-1.3162,-1.316,-1.3135,-1.3135,-1.3135,0,-1.3713,-1.3671,-1.363,-1.3566,-1.355,-1.3528,-1.3477,-1.3445,-1.3393,-1.3368,-1.3332,-1.3296,-1.3259,-1.3244,-1.3191,-1.3198,-1.3173,-1.3148,-1.3146,-1.3139,-1.3125,-1.3139,-1.3159,-1.3158,-1.3133,-1.3133,-1.3133,0,-1.3755,-1.3688,-1.3653,-1.363,-1.3555,-1.354,-1.3507,-1.3455,-1.3427,-1.3382,-1.3363,-1.3314,-1.3288,-1.3249,-1.32,-1.3194,-1.3151,-1.3133,-1.3127,-1.3129,-1.3121,-1.3122,-1.3136,-1.3106,-1.3106,-1.3106,-1.3106,0,-1.3769,-1.3745,-1.3671,-1.365,-1.362,-1.3567,-1.3538,-1.3501,-1.3455,-1.3424,-1.3379,-1.335,-1.3287,-1.325,-1.3211,-1.3172,-1.316,-1.3137,-1.3127,-1.3141,-1.3143,-1.3124,-1.3122,-1.3106,-1.3106,-1.3106,-1.3106,0,-1.3811,-1.3761,-1.372,-1.3651,-1.3633,-1.3614,-1.3554,-1.3531,-1.3491,-1.3452,-1.3439,-1.3377,-1.333,-1.3277,-1.3214,-1.3187,-1.315,-1.3136,-1.3168,-1.3162,-1.3159,-1.316,-1.3161,-1.3157,-1.3131,-1.3131,-1.3132,0,-1.3823,-1.3803,-1.3732,-1.3708,-1.3677,-1.364,-1.3611,-1.3556,-1.3527,-1.3465,-1.3448,-1.3398,-1.3356,-1.3283,-1.3231,-1.3181,-1.3164,-1.3168,-1.3157,-1.317,-1.3163,-1.3164,-1.3161,-1.3171,-1.3172,-1.3172,-1.3173,0,-1.3849,-1.3824,-1.3785,-1.3736,-1.3702,-1.3661,-1.3617,-1.36,-1.3536,-1.3505,-1.3458,-1.3425,-1.3359,-1.3309,-1.3252,-1.3216,-1.3183,-1.3177,-1.3172,-1.3186,-1.3206,-1.3194,-1.3176,-1.3177,-1.3177,-1.3176,-1.3176,-1.3176,-1.3875,-1.3854,-1.38,-1.3757,-1.3718,-1.3678,-1.3651,-1.3607,-1.3567,-1.351,-1.3479,-1.3431,-1.3376,-1.3296,-1.3261,-1.3221,-1.321,-1.3205,-1.3203,-1.3202,-1.3206,-1.3212,-1.3211,-1.321,-1.321,-1.321,-1.321,0,-1.3898,-1.386,-1.382,-1.3761,-1.3725,-1.3697,-1.3647,-1.3619,-1.3578,-1.353,-1.3488,-1.3431,-1.3382,-1.3325,-1.3271,-1.325,-1.3233,-1.3238,-1.3239,-1.323,-1.3219,-1.3228,-1.3252,-1.3252,-1.3252,-1.3252,-1.3252,-1.3252,-1.3906,-1.3868,-1.3836,-1.3777,-1.3739,-1.3692,-1.3666,-1.3627,-1.3588,-1.3527,-1.3486,-1.3449,-1.3396,-1.3338,-1.329,-1.3274,-1.3256,-1.3265,-1.3244,-1.3235,-1.3232,-1.3228,-1.3236,-1.3262,-1.3262,-1.3259,-1.3259,-1.3259]},{"header":{"parameterUnit":"m.s-1","parameterCategory":1,"la1":30.2991,"la2":30.254,"lo1":-89.0895,"lo2":-89.0444,"dy":0.0017,"dx":0.0017,"nx":28,"ny":28,"refTime":"2023-08-30T21:00:00:Z","depth":0,"parameterNumber":3,"parameterNumberName":"V-component_of_WINDS"},"data":[0,0,0,0,0,0,0,0,0,0,0,0,0,0,0,0,0,0,0,0,0,0,0,0,0,0,0,0,0,0,0,0,0,0,0,0,0,0,0,0,0,0,0,0,0,0,0,0,0,0,0,0,0,0,0,0,0,0,4.1037,4.1039,0,4.1248,4.125,4.1252,4.129,4.1288,4.1286,4.1285,4.1495,4.1502,4.1509,0,0,0,0,0,0,0,0,0,0,0,0,0,4.0661,4.0668,4.1037,4.104,4.1042,4.1247,4.125,4.1253,4.129,4.1288,4.1286,4.1284,4.1493,4.1501,4.151,0,0,0,0,0,0,0,0,0,0,0,0,0,4.0843,4.067,4.1037,4.1086,4.1092,4.1247,4.125,4.1254,4.129,4.1288,4.1285,4.1283,4.149,4.15,4.1511,4.163,0,0,4.1544,4.1549,0,0,0,0,0,0,0,0,4.0833,4.0857,4.1076,4.1083,4.109,4.124,4.1195,4.138,4.1291,4.1215,4.1285,4.1282,4.1412,4.1429,4.1474,4.164,4.1649,4.1545,4.1552,4.1556,4.156,0,0,0,0,0,0,0,4.082,4.0848,4.112,4.1079,4.1088,4.1095,4.1118,4.123,4.1325,4.1221,4.1225,4.1249,4.1415,4.1464,4.1479,4.1652,4.1545,4.1555,4.1561,4.1565,4.1924,4.1927,0,0,0,0,0,0,4.08,4.0837,4.1114,4.1127,4.0953,4.1104,4.113,4.1194,4.1324,4.1342,4.1251,4.125,4.1446,4.1467,4.1487,4.1633,4.1556,4.1567,4.1573,4.1921,4.1924,4.1928,0,0,0,0,0,0,4.0791,4.0824,4.1105,4.0983,4.1019,4.1113,4.1185,4.12,4.1248,4.1347,4.1364,4.1284,4.1445,4.1472,4.1594,4.1641,4.1571,4.1581,4.1917,4.1922,4.1926,4.1928,0,0,0,0,0,0,4.078,4.0821,4.0868,4.0984,4.1026,4.1211,4.1189,4.1206,4.1267,4.1268,4.1382,4.1398,4.1445,4.1578,4.1605,4.1655,4.159,4.1913,4.1919,4.1925,4.1924,4.1932,4.1939,0,0,0,0,0,4.0767,4.086,4.0871,4.0904,4.1088,4.1213,4.1237,4.1291,4.1271,4.1319,4.1382,4.1394,4.1632,4.159,4.1621,4.1675,4.1911,4.1918,4.1924,4.1921,4.193,4.1939,0,0,0,0,0,0,4.0746,4.0876,4.0889,4.1023,4.1107,4.1219,4.1281,4.13,4.139,4.1387,4.1448,4.1473,4.1592,4.1646,4.1597,4.1796,4.1769,4.1783,4.1756,4.1766,4.1774,4.1758,4.1599,0,0,0,0,0,4.0757,4.0851,4.0958,4.1065,4.1107,4.1187,4.1244,4.1278,4.1367,4.1402,4.1474,4.1558,4.1652,4.1712,4.1804,4.1932,4.1956,4.1984,4.1991,4.1997,4.2007,4.2077,4.209,4.195,4.195,4.195,0,0,4.0781,4.0863,4.0918,4.1063,4.1133,4.1225,4.1216,4.1316,4.1384,4.1417,4.1537,4.1592,4.169,4.1816,4.1874,4.1864,4.2051,4.2006,4.2009,4.2017,4.2085,4.2098,4.211,4.1955,4.1954,4.1953,0,0,4.0871,4.0944,4.1041,4.111,4.1216,4.1268,4.1291,4.1401,4.1439,4.1561,4.1587,4.1668,4.1829,4.1897,4.1953,4.2067,4.2081,4.2095,4.2133,4.22,4.2211,4.2221,4.2261,4.2274,4.2105,4.2105,4.2105,0,4.0887,4.103,4.1088,4.1186,4.1248,4.1283,4.1379,4.1444,4.1572,4.1613,4.16,4.1801,4.187,4.2011,4.2038,4.2083,4.2109,4.2082,4.2205,4.2216,4.2226,4.2264,4.2279,4.2106,4.2106,4.2106,4.2106,0,4.1043,4.1142,4.1207,4.1332,4.1401,4.1498,4.1568,4.1631,4.1659,4.1712,4.1834,4.1917,4.2025,4.2062,4.2089,4.2206,4.2196,4.2193,4.2168,4.224,4.2276,4.2291,4.2108,4.2107,4.2107,4.2107,0,0,4.1127,4.1282,4.1305,4.1362,4.148,4.1556,4.1653,4.1761,4.1812,4.19,4.1981,4.2116,4.2114,4.2177,4.2212,4.2271,4.2354,4.2261,4.2264,4.2274,4.2485,4.2486,4.2502,4.2364,4.2368,4.237,4.2477,0,4.123,4.1408,4.1461,4.1609,4.1699,4.1733,4.1817,4.1897,4.1949,4.2031,4.2087,4.2181,4.2172,4.221,4.227,4.2331,4.2397,4.2325,4.2439,4.2442,4.2413,4.2522,4.2523,4.262,4.2492,4.2494,4.2496,0,4.1375,4.1466,4.1623,4.1728,4.1768,4.1844,4.1945,4.2025,4.2115,4.2148,4.2218,4.2248,4.2349,4.2318,4.2456,4.2405,4.2455,4.2492,4.2497,4.2509,4.2473,4.2535,4.2652,4.2666,4.2519,4.2517,4.2516,0,4.1418,4.158,4.1695,4.1742,4.1868,4.192,4.1974,4.2063,4.2123,4.2211,4.2251,4.2349,4.2402,4.2476,4.2531,4.2504,4.2663,4.2638,4.2691,4.269,4.2723,4.272,4.2848,4.2757,4.2756,4.2756,4.2756,0,4.1528,4.1622,4.1716,4.1786,4.1891,4.1951,4.2054,4.2109,4.2187,4.2267,4.2302,4.2375,4.2444,4.2526,4.2569,4.2676,4.27,4.2727,4.2738,4.2724,4.272,4.2757,4.2751,4.276,4.2759,4.2758,4.2758,0,4.1594,4.1661,4.1787,4.1897,4.1926,4.1999,4.2091,4.2159,4.2212,4.2312,4.2339,4.2421,4.2519,4.2582,4.2706,4.2735,4.2851,4.286,4.2821,4.2826,4.2875,4.2869,4.3031,4.3054,4.2948,4.2949,4.2949,0,4.1659,4.1732,4.1849,4.1906,4.1962,4.2053,4.2115,4.2176,4.2238,4.2346,4.2401,4.2502,4.2586,4.274,4.281,4.2904,4.2915,4.2965,4.2929,4.2912,4.2914,4.2908,4.2915,4.297,4.2971,4.2972,4.2972,0,4.1766,4.1796,4.1885,4.1986,4.2059,4.2141,4.2222,4.2266,4.234,4.2409,4.2511,4.2576,4.2703,4.2802,4.2903,4.2956,4.2976,4.2983,4.3,4.2987,4.296,4.2974,4.2835,4.2979,4.2978,4.2978,4.2977,4.2977,4.1833,4.1899,4.1992,4.209,4.2158,4.2233,4.2302,4.2363,4.245,4.2559,4.2589,4.2695,4.2782,4.292,4.2975,4.3057,4.305,4.3075,4.3082,4.3086,4.3086,4.2948,4.3075,4.3075,4.3075,4.3075,4.3075,0,4.1941,4.2002,4.2092,4.2205,4.2281,4.2295,4.2386,4.2448,4.2541,4.2621,4.2703,4.2819,4.2914,4.2991,4.3088,4.3139,4.315,4.3162,4.3159,4.317,4.3088,4.3062,4.3152,4.3152,4.3151,4.3151,4.3151,4.3151,4.2006,4.2118,4.2158,4.2304,4.2364,4.2469,4.2519,4.2588,4.2652,4.278,4.286,4.291,4.2988,4.3092,4.3179,4.3199,4.3232,4.3242,4.3263,4.3185,4.3176,4.3168,4.3145,4.325,4.325,4.3339,4.334,4.3341]}]]